Tracking 28790 objects as of 19-Apr-2024
HD Live streaming from Space Station
objects crossing your sky now

FENGYUN 1C DEB

Track FENGYUN 1C DEB now!
10-day predictions


NORAD ID: 32234
Int'l Code: 1999-025CWG
Perigee: 832.4 km
Apogee: 1,034.1 km
Inclination: 98.6 °
Period: 103.5 minutes
Semi major axis: 7304 km
RCS: 0.0048 m2 (small)
Launch date: May 10, 1999
Source: People's Republic of China (PRC)
Launch site: Taiyaun Space Center, China (TSC)

Note: This is SATELLITE DEBRIS
Your satellite tracking list
Your tracking list is empty




NASA's NSSDC Master Catalog

Two Line Element Set (TLE):
1 32234U 99025CWG 24110.16754486  .00002869  00000-0  21560-2 0  9999
2 32234  98.5809 359.5537 0138096 202.3220 157.1893 13.90716289849810
Source of the keplerian elements: AFSPC